Regional Weather Roundup
Issued by NWS

Home | Current Version | Previous Version | Graphics & Text | Print | Product List | Glossary On
Versions: 1 2 3 4 5 6 7 8 9 10 11 12 13 14 15 16 17 18 19 20 21 22 23 24 25 26 27 28 29 30 31 32 33 34 35 36 37 38 39 40 41 42 43 44 45 46 47 48 49 50
000
ASUS43 KLOT 031203
RWRIL

ILLINOIS REGIONAL WEATHER ROUNDUP
NATIONAL WEATHER SERVICE CHICAGO/ROMEOVILLE IL
600 AM CST SAT DEC 03 2016

NOTE: "FAIR" INDICATES FEW OR NO CLOUDS BELOW 12,000 FEET WITH NO
SIGNIFICANT WEATHER AND/OR OBSTRUCTIONS TO VISIBILITY.

* THESE STATIONS ARE NOT UNDER NWS QUALITY CONTROL. THEY ALSO MAY NOT
  REPORT WEATHER SUCH AS PRECIPITATION OR FOG.

ILZ001-002-007-009-015-016-024-031300-
NORTHWEST ILLINOIS

CITY           SKY/WX    TMP DP  RH WIND       PRES   REMARKS
MOLINE         CLOUDY    34  23  64 NW10      30.36F WCI  26
6HR MIN TEMP:  33; 6HR MAX TEMP:  35;

STERLING*      CLOUDY    32  25  75 W10       30.37  WCI  24
SAVANNA*       CLOUDY    32  24  72 NW9       30.37S WCI  24
$$

ILZ003-004-008-010-011-017-018-031300-
NORTH CENTRAL ILLINOIS

CITY           SKY/WX    TMP DP  RH WIND       PRES   REMARKS
ROCKFORD       CLOUDY    31  22  69 W7        30.37S WCI  24
6HR MIN TEMP:  31; 6HR MAX TEMP:  33;

FREEPORT*      CLOUDY    30  24  76 W7        30.37R WCI  23
ROCHELLE*      CLOUDY    31  26  78 W5        30.36S WCI  27
$$

ILZ005-006-012>014-019>023-031300-
NORTHEAST ILLINOIS

CITY           SKY/WX    TMP DP  RH WIND       PRES   REMARKS
CHICAGO-OHARE  CLOUDY    32  22  66 W6        30.34S WCI  26
6HR MIN TEMP:  32; 6HR MAX TEMP:  34;

CHICAGO-MIDWAY CLOUDY    33  21  61 W8        30.35S WCI  26
6HR MIN TEMP:  33; 6HR MAX TEMP:  35;

AURORA         CLOUDY    33  27  78 W5        30.36R WCI  29
6HR MIN TEMP:  33; 6HR MAX TEMP:  33;

LANSING*       CLOUDY    32  26  76 W10       30.36S WCI  24
JOLIET*        CLOUDY    34  27  74 NW3       30.36S
WAUKEGAN       CLOUDY    31  23  72 CALM      30.34
6HR MIN TEMP:  31; 6HR MAX TEMP:  33;

DUPAGE AIRPORT CLOUDY    32  22  66 NW8       30.34S WCI  25
6HR MIN TEMP:  32; 6HR MAX TEMP:  33;

KANKAKEE*      CLOUDY    34  26  71 W8        30.35F WCI  27
WHEELING       CLOUDY    32  21  64 W10       30.36R WCI  24
6HR MIN TEMP:  32; 6HR MAX TEMP:  34;

MORRIS*        CLOUDY    33  28  81 W8        30.35S WCI  26
ROMEOVILLE*    CLOUDY    32  27  83 NW6       30.35S WCI  26
NORTHERLY ISL    N/A     34  23  64 W3          N/A
$$

LMZ740>746-031300-
SOUTHERN LAKE MICHIGAN

STATION/POSITION SKY/WX   TEMP    WIND        PRES    VSBY  WAVE
                          AIR SEA DIR/SP/G                  HT/PER
                          (F)     (DEG/KT/KT) (MB)    (MI)  (FT/S)
SOUTHERN BUOY              35 49  270/ 10/ 12 1026.9F         1/ 5
HARRISON CRIB              35     250/ 12/ 14   N/A
BURNHAM HARBOR             33     260/  6/ 11   N/A
CALUMET HARBOR             33     260/  5/  8 1027.1R
BURNS HARBOR               35     260/ 11/ 14 1028.1R
MICHIGAN CITY              35     230/ 14/ 16   N/A
$$

ILZ025>027-034>036-040-047-049-050-058-095>099-031300-
WEST-CENTRAL ILLINOIS

CITY           SKY/WX    TMP DP  RH WIND       PRES   REMARKS
QUINCY         PTCLDY    30  29  96 NE7       30.35S WCI  23
GALESBURG*     CLOUDY    32  28  86 CALM      30.38R
MACOMB*        CLOUDY    32  30  92 NE5       30.38F WCI  27
JACKSONVILLE*  CLOUDY    31  30  96 NE3       30.36S
PITTSFIELD*    CLOUDY    29  28  96 CALM      30.36S
$$

ILZ028>032-037-038-041>044-048-051>054-059>061-031300-
CENTRAL ILLINOIS

CITY           SKY/WX    TMP DP  RH WIND       PRES   REMARKS
PONTIAC        CLOUDY    33  30  89 NW8       30.37R WCI  26
BLOOMINGTON    CLOUDY    32  27  81 NW7       30.37  WCI  26
DECATUR        CLOUDY    37  27  67 NW7       30.36F WCI  32
PEORIA         CLOUDY    34  27  75 NW5       30.38R WCI  30
6HR MIN TEMP:  34; 6HR MAX TEMP:  36;

LACON*         CLOUDY    32  27  83 NW7       30.38R WCI  26
LINCOLN*       MOCLDY    34  30  85 CALM      30.38R
SPRINGFIELD    PTCLDY    35  30  82 N6        30.37S WCI  30
6HR MIN TEMP:  34; 6HR MAX TEMP:  39;

TAYLORVILLE    MOCLDY    33  32  96 CALM      30.36R
6HR MIN TEMP:  32; 6HR MAX TEMP:  37;

$$

ILZ033-039-045-046-055>057-062-063-031300-
EAST-CENTRAL ILLINOIS

CITY           SKY/WX    TMP DP  RH WIND       PRES   REMARKS
CHAMPAIGN      CLOUDY    33  29  85 NW3       30.36S
RANTOUL*       CLOUDY    35  30  80 NW9       30.36R WCI  28
MATTOON        CLOUDY    34  30  85 CALM      30.35S
PARIS*         CLOUDY    33  29  85 CALM      30.36F
$$

ILZ079-100>102-031300-
SOUTHWEST ILLINOIS

CITY           SKY/WX    TMP DP  RH WIND       PRES   REMARKS
ALTON          CLOUDY    29  28  98 CALM      30.37R
BELLEVILLE     PTCLDY    29  29 100 CALM      30.36S
CAHOKIA*       MOCLDY    30  27  88 CALM      30.37S
SPARTA*        CLOUDY    31  29  95 CALM      30.37S
$$

ILZ064>066-069>071-074>076-080>082-084>086-088>090-092>094-031300-
SOUTH-CENTRAL ILLINOIS

CITY           SKY/WX    TMP DP  RH WIND       PRES   REMARKS
CARBONDALE     MOCLDY    28  28 100 CALM      30.38R
6HR MIN TEMP:  27; 6HR MAX TEMP:  31;

CAIRO*         CLOUDY    35  32  90 NE3       30.37R
EFFINGHAM*     PTCLDY    35  34  96 CALM      30.37S
MARION         CLOUDY    30  30 100 CALM      30.39R
CENTRALIA*     PTCLDY    30  30  99 CALM      30.36S FOG
SALEM*         PTCLDY    32  29  90 CALM      30.37S
METROPOLIS*    CLOUDY    32  31  96 CALM      30.39R
$$

ILZ067-068-072-073-078-083-087-091-031300-
SOUTHEAST ILLINOIS

CITY           SKY/WX    TMP DP  RH WIND       PRES   REMARKS
LAWRENCEVILLE  CLOUDY    38  33  82 CALM      30.37R
FLORA*         MOCLDY    32  31  94 CALM      30.37S
FAIRFIELD*     CLOUDY    30  29  99 CALM      30.36R FOG
HARRISBURG*    PTCLDY    30  29  98 CALM      30.38R
ROBINSON*      CLOUDY    37  32  83 N5        30.38R WCI  33
CARMI*         CLOUDY    29  29  99 CALM      30.37R FOG
$$

ABBREVIATIONS USED IN REMARKS
   TC - TEMPERATURE IN CELSIUS
  WCI - WIND CHILL INDEX
   HX - HEAT INDEX
  VSB - VISIBILITY
$$





USA.gov is the U.S. government's official web portal to all federal, state and local government web resources and services.